FW9594 Weather Reports


Display with metric or nautical units.
time (UTC)temp
F
wind
direction
speed
MPH
gust
MPH
rain 1hr
in
rain 24hr
in
rain mn
in
humidity
%
barometer
mb
20260510021617 80 96 0.0 0.0 0.00 0.00 0.00 58 1007.9
20260510020617 80 96 0.0 0.0 0.00 0.00 0.00 57 1007.7
20260510015614 81 111 0.0 1.0 0.00 0.00 0.00 56 1007.7
20260510014613 82 99 0.0 2.0 0.00 0.00 0.00 55 1007.5
20260510014527 82 179 0.0 2.0 0.00 0.00 0.00 55 1007.6
20260510012612 83 114 0.0 2.0 0.00 0.00 0.00 55 1007.4
20260510011608 83 90 1.0 3.0 0.00 0.00 0.00 56 1007.2
20260510010609 84 87 1.0 2.0 0.00 0.00 0.00 56 1007.0
20260510005607 85 92 1.0 5.0 0.00 0.00 0.00 55 1006.9
20260510004604 86 117 2.0 5.0 0.00 0.00 0.00 54 1006.9
20260510003606 88 97 1.0 3.0 0.00 0.00 0.00 54 1006.9
20260510002602 88 94 1.0 5.0 0.00 0.00 0.00 54 1006.9
20260510001602 89 82 1.0 3.0 0.00 0.00 0.00 53 1006.9
20260510000601 89 162 2.0 3.0 0.00 0.00 0.00 52 1006.9
20260509235602 91 94 2.0 3.0 0.00 0.00 0.00 48 1007.0
20260509234601 91 272 1.0 3.0 0.00 0.00 0.00 45 1007.0
20260509233602 93 296 0.0 1.0 0.00 0.00 0.00 40 1007.0
20260509232601 91 296 1.0 3.0 0.00 0.00 0.00 43 1007.2
20260509231601 91 257 1.0 5.0 0.00 0.00 0.00 44 1007.1
20260509231042 93 276 0.0 2.0 0.00 0.00 0.00 43 1007.0
20260509225601 93 289 0.0 3.0 0.00 0.00 0.00 39 1007.0
20260509224602 93 214 0.0 3.0 0.00 0.00 0.00 44 1007.0
20260509223602 92 203 2.0 4.0 0.00 0.00 0.00 44 1007.1
20260509222602 89 179 1.0 4.0 0.00 0.00 0.00 46 1007.0
20260509221600 89 13 3.0 5.0 0.00 0.00 0.00 46 1007.1
20260509221528 90 158 0.0 6.0 0.00 0.00 0.00 45 1007.2
20260509215601 89 82 3.0 6.0 0.00 0.00 0.00 45 1007.1
20260509214601 90 38 3.0 5.0 0.00 0.00 0.00 44 1007.2
20260509213602 89 93 3.0 7.0 0.00 0.00 0.00 48 1007.3
20260509213041 88 45 2.0 7.0 0.00 0.00 0.00 51 1007.4
20260509211602 89 63 5.0 11.0 0.00 0.00 0.00 47 1007.6
20260509210602 88 69 2.0 4.0 0.00 0.00 0.00 50 1007.7
20260509210035 89 358 2.0 6.0 0.00 0.00 0.00 51 1007.9
20260509204601 90 92 1.0 3.0 0.00 0.00 0.00 50 1007.9
20260509203602 88 4 1.0 6.0 0.00 0.00 0.00 53 1008.0
20260509202602 87 18 3.0 6.0 0.00 0.00 0.00 57 1008.3
20260509201602 88 58 2.0 7.0 0.00 0.00 0.00 50 1008.3
20260509200601 87 80 1.0 5.0 0.00 0.00 0.00 55 1008.3
20260509195601 87 16 1.0 7.0 0.00 0.00 0.00 57 1008.6
20260509194601 88 44 2.0 6.0 0.00 0.00 0.00 56 1008.6
20260509193601 86 51 3.0 6.0 0.00 0.00 0.00 53 1008.8
20260509192602 85 285 1.0 4.0 0.00 0.00 0.00 58 1008.8
20260509191601 84 49 2.0 9.0 0.00 0.00 0.00 60 1009.0
20260509191518 85 21 2.0 9.0 0.00 0.00 0.00 63 1008.9
20260509185601 85 51 2.0 7.0 0.00 0.00 0.00 63 1009.0
20260509185034 84 59 4.0 7.0 0.00 0.00 0.00 62 1009.1
20260509183601 84 58 4.0 6.0 0.00 0.00 0.00 64 1009.2
20260509182601 83 130 2.0 9.0 0.00 0.00 0.00 66 1009.2
20260509181602 84 16 4.0 10.0 0.00 0.00 0.00 63 1009.3
20260509180601 84 48 2.0 9.0 0.00 0.00 0.00 64 1009.4
20260509175600 83 41 4.0 11.0 0.00 0.00 0.00 62 1009.4
20260509174601 82 35 6.0 12.0 0.00 0.00 0.00 65 1009.4
20260509173601 83 290 4.0 9.0 0.00 0.00 0.00 61 1009.5
20260509172601 82 30 3.0 11.0 0.00 0.00 0.00 62 1009.8
20260509171601 82 54 2.0 4.0 0.00 0.00 0.00 63 1009.9
20260509171055 81 303 2.0 14.0 0.00 0.00 0.00 63 1010.0
20260509165602 81 37 3.0 10.0 0.00 0.00 0.00 62 1010.0
20260509165034 80 42 6.0 14.0 0.00 0.00 0.00 63 1010.0
20260509163601 80 38 6.0 10.0 0.00 0.00 0.00 64 1010.1
20260509162601 80 37 6.0 11.0 0.00 0.00 0.00 65 1010.1
20260509161601 80 37 4.0 7.0 0.00 0.00 0.00 65 1010.1
20260509160601 80 63 4.0 7.0 0.00 0.00 0.00 65 1010.0
20260509155602 79 8 3.0 6.0 0.00 0.00 0.00 62 1010.0
20260509154601 79 30 4.0 10.0 0.00 0.00 0.00 65 1009.9
20260509153602 79 24 4.0 9.0 0.00 0.00 0.00 63 1009.9
20260509153040 79 250 2.0 9.0 0.00 0.00 0.00 63 1010.0
20260509152049 78 51 6.0 11.0 0.00 0.00 0.00 65 1010.0
20260509150601 78 41 4.0 10.0 0.00 0.00 0.00 73 1010.0
20260509150041 76 347 3.0 10.0 0.00 0.00 0.00 75 1010.0
20260509144601 76 34 3.0 9.0 0.00 0.00 0.00 77 1010.0
20260509143602 75 38 5.0 7.0 0.00 0.00 0.00 78 1010.0
20260509142557 74 4 2.0 7.0 0.00 0.00 0.00 80 1009.9
20260509141552 74 296 2.0 7.0 0.00 0.00 0.00 80 1009.9
20260509140547 73 52 3.0 7.0 0.00 0.00 0.00 80 1010.0
20260509135542 73 300 2.0 6.0 0.00 0.00 0.00 81 1010.0
20260509134537 73 326 2.0 7.0 0.00 0.00 0.00 82 1009.9
20260509133531 72 39 3.0 9.0 0.00 0.00 0.00 83 1009.8
20260509132533 71 54 3.0 7.0 0.00 0.00 0.00 84 1009.6
20260509131530 71 38 7.0 9.0 0.00 0.00 0.00 85 1009.6
20260509130527 70 49 4.0 9.0 0.00 0.00 0.00 86 1009.8
20260509125523 69 41 4.0 9.0 0.00 0.00 0.00 88 1009.6
20260509124523 68 16 3.0 6.0 0.00 0.01 0.00 89 1009.6
20260509123522 68 28 5.0 9.0 0.00 0.02 0.00 89 1009.6
20260509122522 68 49 2.0 6.0 0.00 0.04 0.00 90 1009.8
20260509121522 67 23 3.0 5.0 0.00 0.05 0.00 90 1009.6
20260509120522 67 265 1.0 4.0 0.00 0.15 0.00 90 1009.6
20260509115958 67 49 3.0 5.0 0.00 0.15 0.00 90 1009.4
20260509114522 67 285 3.0 5.0 0.00 0.15 0.00 89 1009.4
20260509114005 67 37 1.0 6.0 0.00 0.15 0.00 88 1009.2
20260509112523 67 75 2.0 6.0 0.00 0.15 0.00 87 1008.7
20260509111523 68 281 3.0 5.0 0.00 0.15 0.00 86 1008.7
20260509110523 68 337 2.0 5.0 0.00 0.15 0.00 86 1008.4
20260509105522 68 271 4.0 5.0 0.00 0.15 0.00 86 1008.2
20260509104522 68 286 2.0 3.0 0.00 0.15 0.00 87 1007.9
20260509103523 68 278 0.0 0.0 0.00 0.16 0.00 87 1007.9
20260509102522 68 276 0.0 2.0 0.00 0.29 0.00 87 1007.8
20260509102000 68 276 0.0 2.0 0.00 0.35 0.00 87 1007.7
20260509100523 68 279 0.0 2.0 0.00 0.35 0.00 86 1007.7
20260509095522 69 281 0.0 1.0 0.00 0.36 0.00 86 1007.7
20260509095002 69 333 0.0 0.0 0.00 0.37 0.00 85 1007.4
20260509093525 69 37 0.0 0.0 0.00 0.37 0.00 84 1007.2
20260509092524 70 345 0.0 0.0 0.00 0.37 0.00 82 1007.3
20260509091524 71 231 0.0 1.0 0.00 0.37 0.00 81 1006.9
20260509090524 70 320 0.0 4.0 0.00 0.37 0.00 83 1007.0
20260509085524 71 279 0.0 3.0 0.00 0.37 0.00 85 1007.4
20260509085009 71 299 1.0 4.0 0.00 0.37 0.00 85 1007.1
20260509083524 70 51 0.0 4.0 0.00 0.38 0.00 85 1005.6
20260509083008 70 221 2.0 6.0 0.00 0.38 0.00 85 1005.1
20260509081523 70 175 1.0 7.0 0.00 0.40 0.00 86 1005.5
20260509080524 71 214 1.0 4.0 0.00 0.40 0.00 86 1006.2
20260509075524 71 138 2.0 6.0 0.00 0.41 0.00 86 1006.9
20260509074955 70 212 3.0 6.0 0.00 0.42 0.00 86 1007.6
20260509073524 70 171 1.0 7.0 0.00 0.42 0.00 87 1008.3
20260509072524 70 230 2.0 6.0 0.00 0.43 0.00 87 1008.3
20260509071524 70 227 2.0 6.0 0.00 0.45 0.00 87 1008.7
20260509070523 69 233 2.0 6.0 0.00 0.45 0.00 88 1009.1
20260509065525 69 317 0.0 6.0 0.00 0.45 0.00 88 1009.3
20260509065031 69 219 1.0 6.0 0.00 0.45 0.00 88 1009.5
20260509063523 69 296 4.0 6.0 0.00 0.45 0.00 88 1009.9
20260509062524 69 292 4.0 5.0 0.00 0.45 0.00 89 1009.9
20260509061524 69 274 1.0 4.0 0.00 0.45 0.00 88 1009.8
20260509061441 69 180 1.0 2.0 0.00 0.45 0.00 87 1009.5
20260509055523 69 230 0.0 0.0 0.00 0.45 0.00 86 1009.8
20260509054523 69 154 0.0 0.0 0.00 0.45 0.00 85 1009.5
20260509053959 69 114 0.0 0.0 0.00 0.45 0.00 85 1010.1
20260509052524 70 113 0.0 1.0 0.00 0.45 0.00 83 1010.4
20260509051523 70 37 0.0 2.0 0.00 0.45 0.00 83 1010.6
20260509050523 70 8 2.0 5.0 0.00 0.45 0.00 84 1010.8
20260509045959 70 38 3.0 4.0 0.00 0.45 0.45 85 1010.8
20260509044523 70 103 0.0 0.0 0.00 0.45 0.45 83 1009.5
20260509043523 71 103 0.0 0.0 0.00 0.45 0.45 82 1009.5
20260509042523 71 103 0.0 0.0 0.00 0.45 0.45 81 1009.6
20260509041523 71 103 0.0 0.0 0.00 0.45 0.45 81 1009.3
20260509040524 71 104 0.0 4.0 0.00 0.45 0.45 80 1009.0
20260509035524 72 214 0.0 1.0 0.00 0.45 0.45 80 1008.9
20260509034523 72 243 0.0 1.0 0.00 0.45 0.45 79 1008.6
20260509033523 73 157 0.0 3.0 0.00 0.45 0.45 79 1009.0
20260509032523 72 51 0.0 0.0 0.00 0.45 0.45 79 1009.9
20260509031524 72 44 0.0 6.0 0.00 0.45 0.45 80 1009.9
20260509030524 72 28 1.0 4.0 0.00 0.45 0.45 81 1009.4
20260509025524 72 87 0.0 2.0 0.00 0.45 0.45 81 1008.8
20260509024523 71 261 0.0 0.0 0.00 0.45 0.45 81 1008.4
20260509023524 71 142 0.0 0.0 0.00 0.45 0.45 81 1008.3
20260509022523 71 145 0.0 2.0 0.00 0.45 0.45 81 1007.9